Date,Power Release (cfs),
01-Jan-1964,0, , , , , , , , , ,
01-Feb-1964,0, , , , , , , , , ,
01-Mar-1964,0, , , , , , , , , ,
01-Apr-1964,0, , , , , , , , , ,
01-May-1964,0, , , , , , , , , ,
01-Jun-1964,0, , , , , , , , , ,
01-Jul-1964,0, , , , , , , , , ,
01-Aug-1964,0, , , , , , , , , ,
01-Sep-1964,2371, , , , , , , , , ,
01-Oct-1964,4330, , , , , , , , , ,
01-Nov-1964,6092, , , , , , , , , ,
01-Dec-1964,6466, , , , , , , , , ,
01-Jan-1965,9199, , , , , , , , , ,
01-Feb-1965,8221, , , , , , , , , ,
01-Mar-1965,7241, , , , , , , , , ,
01-Apr-1965,7949, , , , , , , , , ,
01-May-1965,9284, , , , , , , , , ,
01-Jun-1965,12531, , , , , , , , , ,
01-Jul-1965,11127, , , , , , , , , ,
01-Aug-1965,12256, , , , , , , , , ,
01-Sep-1965,12402, , , , , , , , , ,
01-Oct-1965,11651, , , , , , , , , ,
01-Nov-1965,10938, , , , , , , , , ,
01-Dec-1965,9712, , , , , , , , , ,
01-Jan-1966,8621, , , , , , , , , ,
01-Feb-1966,9913, , , , , , , , , ,
01-Mar-1966,11255, , , , , , , , , ,
01-Apr-1966,13963, , , , , , , , , ,
01-May-1966,16019, , , , , , , , , ,
01-Jun-1966,12729, , , , , , , , , ,
01-Jul-1966,11028, , , , , , , , , ,
01-Aug-1966,10872, , , , , , , , , ,
01-Sep-1966,10340, , , , , , , , , ,
01-Oct-1966,8654, , , , , , , , , ,
01-Nov-1966,9483, , , , , , , , , ,
01-Dec-1966,8323, , , , , , , , , ,
01-Jan-1967,9200, , , , , , , , , ,
01-Feb-1967,9137, , , , , , , , , ,
01-Mar-1967,10504, , , , , , , , , ,
01-Apr-1967,14584, , , , , , , , , ,
01-May-1967,14575, , , , , , , , , ,
01-Jun-1967,12379, , , , , , , , , ,
01-Jul-1967,10225, , , , , , , , , ,
01-Aug-1967,10051, , , , , , , , , ,
01-Sep-1967,8851, , , , , , , , , ,
01-Oct-1967,6227, , , , , , , , , ,
01-Nov-1967,7879, , , , , , , , , ,
01-Dec-1967,9028, , , , , , , , , ,
01-Jan-1968,10303, , , , , , , , , ,
01-Feb-1968,8123, , , , , , , , , ,
01-Mar-1968,13676, , , , , , , , , ,
01-Apr-1968,17434, , , , , , , , , ,
01-May-1968,16319, , , , , , , , , ,
01-Jun-1968,15491, , , , , , , , , ,
01-Jul-1968,13131, , , , , , , , , ,
01-Aug-1968,10948, , , , , , , , , ,
01-Sep-1968,10498, , , , , , , , , ,
01-Oct-1968,9978, , , , , , , , , ,
01-Nov-1968,10299, , , , , , , , , ,
01-Dec-1968,10124, , , , , , , , , ,
01-Jan-1969,9253, , , , , , , , , ,
01-Feb-1969,8397, , , , , , , , , ,
01-Mar-1969,12231, , , , , , , , , ,
01-Apr-1969,15257, , , , , , , , , ,
01-May-1969,13034, , , , , , , , , ,
01-Jun-1969,15258, , , , , , , , , ,
01-Jul-1969,15355, , , , , , , , , ,
01-Aug-1969,14443, , , , , , , , , ,
01-Sep-1969,12301, , , , , , , , , ,
01-Oct-1969,9608, , , , , , , , , ,
01-Nov-1969,11748, , , , , , , , , ,
01-Dec-1969,13243, , , , , , , , , ,
01-Jan-1970,11720, , , , , , , , , ,
01-Feb-1970,7766, , , , , , , , , ,
01-Mar-1970,8114, , , , , , , , , ,
01-Apr-1970,16194, , , , , , , , , ,
01-May-1970,15034, , , , , , , , , ,
01-Jun-1970,14315, , , , , , , , , ,
01-Jul-1970,12596, , , , , , , , , ,
01-Aug-1970,11508, , , , , , , , , ,
01-Sep-1970,11660, , , , , , , , , ,
01-Oct-1970,7876, , , , , , , , , ,
01-Nov-1970,7436, , , , , , , , , ,
01-Dec-1970,10910, , , , , , , , , ,
01-Jan-1971,8088, , , , , , , , , ,
01-Feb-1971,7645, , , , , , , , , ,
01-Mar-1971,10094, , , , , , , , , ,
01-Apr-1971,17226, , , , , , , , , ,
01-May-1971,16081, , , , , , , , , ,
01-Jun-1971,16774, , , , , , , , , ,
01-Jul-1971,16490, , , , , , , , , ,
01-Aug-1971,15010, , , , , , , , , ,
01-Sep-1971,13493, , , , , , , , , ,
01-Oct-1971,9233, , , , , , , , , ,
01-Nov-1971,12293, , , , , , , , , ,
01-Dec-1971,14476, , , , , , , , , ,
01-Jan-1972,13140, , , , , , , , , ,
01-Feb-1972,7805, , , , , , , , , ,
01-Mar-1972,6169, , , , , , , , , ,
01-Apr-1972,13478, , , , , , , , , ,
01-May-1972,14737, , , , , , , , , ,
01-Jun-1972,15437, , , , , , , , , ,
01-Jul-1972,14732, , , , , , , , , ,
01-Aug-1972,16774, , , , , , , , , ,
01-Sep-1972,15849, , , , , , , , , ,
01-Oct-1972,10654, , , , , , , , , ,
01-Nov-1972,11527, , , , , , , , , ,
01-Dec-1972,16215, , , , , , , , , ,
01-Jan-1973,19019, , , , , , , , , ,
01-Feb-1973,13721, , , , , , , , , ,
01-Mar-1973,17501, , , , , , , , , ,
01-Apr-1973,27431, , , , , , , , , ,
01-May-1973,10630, , , , , , , , , ,
01-Jun-1973,12924, , , , , , , , , ,
01-Jul-1973,10680, , , , , , , , , ,
01-Aug-1973,9357, , , , , , , , , ,
01-Sep-1973,7275, , , , , , , , , ,
01-Oct-1973,8473, , , , , , , , , ,
01-Nov-1973,7100, , , , , , , , , ,
01-Dec-1973,5768, , , , , , , , , ,
01-Jan-1974,14100, , , , , , , , , ,
01-Feb-1974,5824, , , , , , , , , ,
01-Mar-1974,6621, , , , , , , , , ,
01-Apr-1974,8682, , , , , , , , , ,
01-May-1974,13304, , , , , , , , , ,
01-Jun-1974,15397, , , , , , , , , ,
01-Jul-1974,20094, , , , , , , , , ,
01-Aug-1974,19751, , , , , , , , , ,
01-Sep-1974,13719, , , , , , , , , ,
01-Oct-1974,9801, , , , , , , , , ,
01-Nov-1974,12062, , , , , , , , , ,
01-Dec-1974,9467, , , , , , , , , ,
01-Jan-1975,12754, , , , , , , , , ,
01-Feb-1975,10316, , , , , , , , , ,
01-Mar-1975,8531, , , , , , , , , ,
01-Apr-1975,8143, , , , , , , , , ,
01-May-1975,14747, , , , , , , , , ,
01-Jun-1975,16786, , , , , , , , , ,
01-Jul-1975,20038, , , , , , , , , ,
01-Aug-1975,16501, , , , , , , , , ,
01-Sep-1975,15988, , , , , , , , , ,
01-Oct-1975,9907, , , , , , , , , ,
01-Nov-1975,7120, , , , , , , , , ,
01-Dec-1975,8548, , , , , , , , , ,
01-Jan-1976,11374, , , , , , , , , ,
01-Feb-1976,13023, , , , , , , , , ,
01-Mar-1976,11136, , , , , , , , , ,
01-Apr-1976,11117, , , , , , , , , ,
01-May-1976,17054, , , , , , , , , ,
01-Jun-1976,12583, , , , , , , , , ,
01-Jul-1976,12422, , , , , , , , , ,
01-Aug-1976,11626, , , , , , , , , ,
01-Sep-1976,14181, , , , , , , , , ,
01-Oct-1976,12917, , , , , , , , , ,
01-Nov-1976,15055, , , , , , , , , ,
01-Dec-1976,13071, , , , , , , , , ,
01-Jan-1977,16318, , , , , , , , , ,
01-Feb-1977,8589, , , , , , , , , ,
01-Mar-1977,7649, , , , , , , , , ,
01-Apr-1977,2864, , , , , , , , , ,
01-May-1977,3576, , , , , , , , , ,
01-Jun-1977,8047, , , , , , , , , ,
01-Jul-1977,14227, , , , , , , , , ,
01-Aug-1977,19280, , , , , , , , , ,
01-Sep-1977,16364, , , , , , , , , ,
01-Oct-1977,6208, , , , , , , , , ,
01-Nov-1977,6758, , , , , , , , , ,
01-Dec-1977,13610, , , , , , , , , ,
01-Jan-1978,15492, , , , , , , , , ,
01-Feb-1978,11110, , , , , , , , , ,
01-Mar-1978,9524, , , , , , , , , ,
01-Apr-1978,8225, , , , , , , , , ,
01-May-1978,10558, , , , , , , , , ,
01-Jun-1978,12737, , , , , , , , , ,
01-Jul-1978,11484, , , , , , , , , ,
01-Aug-1978,17623, , , , , , , , , ,
01-Sep-1978,16556, , , , , , , , , ,
01-Oct-1978,11332, , , , , , , , , ,
01-Nov-1978,11397, , , , , , , , , ,
01-Dec-1978,14721, , , , , , , , , ,
01-Jan-1979,17022, , , , , , , , , ,
01-Feb-1979,13690, , , , , , , , , ,
01-Mar-1979,3675, , , , , , , , , ,
01-Apr-1979,6166, , , , , , , , , ,
01-May-1979,8715, , , , , , , , , ,
01-Jun-1979,10434, , , , , , , , , ,
01-Jul-1979,14037, , , , , , , , , ,
01-Aug-1979,17404, , , , , , , , , ,
01-Sep-1979,11374, , , , , , , , , ,
01-Oct-1979,9902, , , , , , , , , ,
01-Nov-1979,13453, , , , , , , , , ,
01-Dec-1979,10519, , , , , , , , , ,
01-Jan-1980,9871, , , , , , , , , ,
01-Feb-1980,10798, , , , , , , , , ,
01-Mar-1980,9762, , , , , , , , , ,
01-Apr-1980,14023, , , , , , , , , ,
01-May-1980,13348, , , , , , , , , ,
01-Jun-1980,25565, , , , , , , , , ,
01-Jul-1980,25775, , , , , , , , , ,
01-Aug-1980,20234, , , , , , , , , ,
01-Sep-1980,15717, , , , , , , , , ,
01-Oct-1980,12049, , , , , , , , , ,
01-Nov-1980,15451, , , , , , , , , ,
01-Dec-1980,12097, , , , , , , , , ,
01-Jan-1981,11684, , , , , , , , , ,
01-Feb-1981,10870, , , , , , , , , ,
01-Mar-1981,6885, , , , , , , , , ,
01-Apr-1981,7506, , , , , , , , , ,
01-May-1981,8605, , , , , , , , , ,
01-Jun-1981,8602, , , , , , , , , ,
01-Jul-1981,13611, , , , , , , , , ,
01-Aug-1981,14351, , , , , , , , , ,
01-Sep-1981,11021, , , , , , , , , ,
01-Oct-1981,9765, , , , , , , , , ,
01-Nov-1981,9768, , , , , , , , , ,
01-Dec-1981,13596, , , , , , , , , ,
01-Jan-1982,14526, , , , , , , , , ,
01-Feb-1982,12186, , , , , , , , , ,
01-Mar-1982,8201, , , , , , , , , ,
01-Apr-1982,10033, , , , , , , , , ,
01-May-1982,9749, , , , , , , , , ,
01-Jun-1982,10344, , , , , , , , , ,
01-Jul-1982,12647, , , , , , , , , ,
01-Aug-1982,14270, , , , , , , , , ,
01-Sep-1982,9770, , , , , , , , , ,
01-Oct-1982,12350, , , , , , , , , ,
01-Nov-1982,15952, , , , , , , , , ,
01-Dec-1982,15380, , , , , , , , , ,
01-Jan-1983,14616, , , , , , , , , ,
01-Feb-1983,15222, , , , , , , , , ,
01-Mar-1983,10357, , , , , , , , , ,
01-Apr-1983,15459, , , , , , , , , ,
01-May-1983,19946, , , , , , , , , ,
01-Jun-1983,26956, , , , , , , , , ,
01-Jul-1983,27010, , , , , , , , , ,
01-Aug-1983,27798, , , , , , , , , ,
01-Sep-1983,27619, , , , , , , , , ,
01-Oct-1983,26679, , , , , , , , , ,
01-Nov-1983,25329, , , , , , , , , ,
01-Dec-1983,25007, , , , , , , , , ,
01-Jan-1984,25012, , , , , , , , , ,
01-Feb-1984,25480, , , , , , , , , ,
01-Mar-1984,25403, , , , , , , , , ,
01-Apr-1984,26778, , , , , , , , , ,
01-May-1984,26599, , , , , , , , , ,
01-Jun-1984,25173, , , , , , , , , ,
01-Jul-1984,23950, , , , , , , , , ,
01-Aug-1984,24151, , , , , , , , , ,
01-Sep-1984,24999, , , , , , , , , ,
01-Oct-1984,22927, , , , , , , , , ,
01-Nov-1984,25591, , , , , , , , , ,
01-Dec-1984,25019, , , , , , , , , ,
01-Jan-1985,26076, , , , , , , , , ,
01-Feb-1985,26883, , , , , , , , , ,
01-Mar-1985,19673, , , , , , , , , ,
01-Apr-1985,19981, , , , , , , , , ,
01-May-1985,26442, , , , , , , , , ,
01-Jun-1985,30674, , , , , , , , , ,
01-Jul-1985,27655, , , , , , , , , ,
01-Aug-1985,25588, , , , , , , , , ,
01-Sep-1985,22888, , , , , , , , , ,
01-Oct-1985,11659, , , , , , , , , ,
01-Nov-1985,11928, , , , , , , , , ,
01-Dec-1985,11195, , , , , , , , , ,
01-Jan-1986,16754, , , , , , , , , ,
01-Feb-1986,21273, , , , , , , , , ,
01-Mar-1986,24906, , , , , , , , , ,
01-Apr-1986,28641, , , , , , , , , ,
01-May-1986,32342, , , , , , , , , ,
01-Jun-1986,31117, , , , , , , , , ,
01-Jul-1986,20127, , , , , , , , , ,
01-Aug-1986,24458, , , , , , , , , ,
01-Sep-1986,26532, , , , , , , , , ,
01-Oct-1986,18093, , , , , , , , , ,
01-Nov-1986,20720, , , , , , , , , ,
01-Dec-1986,24760, , , , , , , , , ,
01-Jan-1987,25871, , , , , , , , , ,
01-Feb-1987,19725, , , , , , , , , ,
01-Mar-1987,12857, , , , , , , , , ,
01-Apr-1987,12829, , , , , , , , , ,
01-May-1987,12147, , , , , , , , , ,
01-Jun-1987,16764, , , , , , , , , ,
01-Jul-1987,17872, , , , , , , , , ,
01-Aug-1987,20929, , , , , , , , , ,
01-Sep-1987,16148, , , , , , , , , ,
01-Oct-1987,8135, , , , , , , , , ,
01-Nov-1987,12210, , , , , , , , , ,
01-Dec-1987,13163, , , , , , , , , ,
01-Jan-1988,13599, , , , , , , , , ,
01-Feb-1988,13849, , , , , , , , , ,
01-Mar-1988,11260, , , , , , , , , ,
01-Apr-1988,9371, , , , , , , , , ,
01-May-1988,8994, , , , , , , , , ,
01-Jun-1988,8855, , , , , , , , , ,
01-Jul-1988,11690, , , , , , , , , ,
01-Aug-1988,12594, , , , , , , , , ,
01-Sep-1988,11557, , , , , , , , , ,
01-Oct-1988,8393, , , , , , , , , ,
01-Nov-1988,10221, , , , , , , , , ,
01-Dec-1988,10477, , , , , , , , , ,
01-Jan-1989,12251, , , , , , , , , ,
01-Feb-1989,11980, , , , , , , , , ,
01-Mar-1989,9745, , , , , , , , , ,
01-Apr-1989,9142, , , , , , , , , ,
01-May-1989,8708, , , , , , , , , ,
01-Jun-1989,12715, , , , , , , , , ,
01-Jul-1989,13558, , , , , , , , , ,
01-Aug-1989,14484, , , , , , , , , ,
01-Sep-1989,13742, , , , , , , , , ,
01-Oct-1989,9074, , , , , , , , , ,
01-Nov-1989,9899, , , , , , , , , ,
01-Dec-1989,10486, , , , , , , , , ,
01-Jan-1990,11225, , , , , , , , , ,
01-Feb-1990,10812, , , , , , , , , ,
01-Mar-1990,10318, , , , , , , , , ,
01-Apr-1990,9617, , , , , , , , , ,
01-May-1990,10160, , , , , , , , , ,
01-Jun-1990,12681, , , , , , , , , ,
01-Jul-1990,13100, , , , , , , , , ,
01-Aug-1990,16009, , , , , , , , , ,
01-Sep-1990,12117, , , , , , , , , ,
01-Oct-1990,7404, , , , , , , , , ,
01-Nov-1990,8300, , , , , , , , , ,
01-Dec-1990,9535, , , , , , , , , ,
01-Jan-1991,10994, , , , , , , , , ,
01-Feb-1991,10795, , , , , , , , , ,
01-Mar-1991,9606, , , , , , , , , ,
01-Apr-1991,9239, , , , , , , , , ,
01-May-1991,12374, , , , , , , , , ,
01-Jun-1991,13382, , , , , , , , , ,
01-Jul-1991,15310, , , , , , , , , ,
01-Aug-1991,14615, , , , , , , , , ,
01-Sep-1991,13507, , , , , , , , , ,
01-Oct-1991,9045, , , , , , , , , ,
01-Nov-1991,9976, , , , , , , , , ,
01-Dec-1991,11307, , , , , , , , , ,
01-Jan-1992,13033, , , , , , , , , ,
01-Feb-1992,11313, , , , , , , , , ,
01-Mar-1992,9801, , , , , , , , , ,
01-Apr-1992,9833, , , , , , , , , ,
01-May-1992,9695, , , , , , , , , ,
01-Jun-1992,11352, , , , , , , , , ,
01-Jul-1992,14230, , , , , , , , , ,
01-Aug-1992,14241, , , , , , , , , ,
01-Sep-1992,12157, , , , , , , , , ,
01-Oct-1992,8930, , , , , , , , , ,
01-Nov-1992,10081, , , , , , , , , ,
01-Dec-1992,11265, , , , , , , , , ,
01-Jan-1993,12964, , , , , , , , , ,
01-Feb-1993,11644, , , , , , , , , ,
01-Mar-1993,9852, , , , , , , , , ,
01-Apr-1993,10008, , , , , , , , , ,
01-May-1993,9620, , , , , , , , , ,
01-Jun-1993,10298, , , , , , , , , ,
01-Jul-1993,14605, , , , , , , , , ,
01-Aug-1993,15035, , , , , , , , , ,
01-Sep-1993,11103, , , , , , , , , ,
01-Oct-1993,8676, , , , , , , , , ,
01-Nov-1993,10364, , , , , , , , , ,
01-Dec-1993,13003, , , , , , , , , ,
01-Jan-1994,13107, , , , , , , , , ,
01-Feb-1994,12405, , , , , , , , , ,
01-Mar-1994,9872, , , , , , , , , ,
01-Apr-1994,10256, , , , , , , , , ,
01-May-1994,9737, , , , , , , , , ,
01-Jun-1994,10485, , , , , , , , , ,
01-Jul-1994,13754, , , , , , , , , ,
01-Aug-1994,13994, , , , , , , , , ,
01-Sep-1994,10470, , , , , , , , , ,
01-Oct-1994,8168, , , , , , , , , ,
01-Nov-1994,8410, , , , , , , , , ,
01-Dec-1994,11193, , , , , , , , , ,
01-Jan-1995,12552, , , , , , , , , ,
01-Feb-1995,12085, , , , , , , , , ,
01-Mar-1995,9951, , , , , , , , , ,
01-Apr-1995,10387, , , , , , , , , ,
01-May-1995,10028, , , , , , , , , ,
01-Jun-1995,16734, , , , , , , , , ,
01-Jul-1995,17768, , , , , , , , , ,
01-Aug-1995,18516, , , , , , , , , ,
01-Sep-1995,18227, , , , , , , , , ,
01-Oct-1995,14629, , , , , , , , , ,
01-Nov-1995,14468, , , , , , , , , ,
01-Dec-1995,14877, , , , , , , , , ,
01-Jan-1996,15814, , , , , , , , , ,
01-Feb-1996,14024, , , , , , , , , ,
01-Mar-1996,15512, , , , , , , , , ,
01-Apr-1996,17538, , , , , , , , , ,
01-May-1996,17089, , , , , , , , , ,
01-Jun-1996,17352, , , , , , , , , ,
01-Jul-1996,15999, , , , , , , , , ,
01-Aug-1996,14802, , , , , , , , , ,
01-Sep-1996,13939, , , , , , , , , ,
01-Oct-1996,10626, , , , , , , , , ,
01-Nov-1996,10462, , , , , , , , , ,
01-Dec-1996,14552, , , , , , , , , ,
01-Jan-1997,17270, , , , , , , , , ,
01-Feb-1997,22468, , , , , , , , , ,
01-Mar-1997,25001, , , , , , , , , ,
01-Apr-1997,21769, , , , , , , , , ,
01-May-1997,20847, , , , , , , , , ,
01-Jun-1997,24977, , , , , , , , , ,
01-Jul-1997,21315, , , , , , , , , ,
01-Aug-1997,20347, , , , , , , , , ,
01-Sep-1997,19196, , , , , , , , , ,
01-Oct-1997,19593, , , , , , , , , ,
01-Nov-1997,20385, , , , , , , , , ,
01-Dec-1997,20397, , , , , , , , , ,
01-Jan-1998,19494, , , , , , , , , ,
01-Feb-1998,19649, , , , , , , , , ,
01-Mar-1998,19475, , , , , , , , , ,
01-Apr-1998,13428, , , , , , , , , ,
01-May-1998,14685, , , , , , , , , ,
01-Jun-1998,18428, , , , , , , , , ,
01-Jul-1998,20307, , , , , , , , , ,
01-Aug-1998,20964, , , , , , , , , ,
01-Sep-1998,17059, , , , , , , , , ,
01-Oct-1998,14675, , , , , , , , , ,
01-Nov-1998,13530, , , , , , , , , ,
01-Dec-1998,14783, , , , , , , , , ,
01-Jan-1999,14619, , , , , , , , , ,
01-Feb-1999,14392, , , , , , , , , ,
01-Mar-1999,12732, , , , , , , , , ,
01-Apr-1999,11889, , , , , , , , , ,
01-May-1999,17008, , , , , , , , , ,
01-Jun-1999,16434, , , , , , , , , ,
01-Jul-1999,17781, , , , , , , , , ,
01-Aug-1999,18793, , , , , , , , , ,
01-Sep-1999,18910, , , , , , , , , ,
01-Oct-1999,17087, , , , , , , , , ,
01-Nov-1999,17818, , , , , , , , , ,
01-Dec-1999,16406, , , , , , , , , ,
01-Jan-2000,13092, , , , , , , , , ,
01-Feb-2000,11291, , , , , , , , , ,
01-Mar-2000,10541, , , , , , , , , ,
01-Apr-2000,15244, , , , , , , , , ,
01-May-2000,18383, , , , , , , , , ,
01-Jun-2000,7969, , , , , , , , , ,
01-Jul-2000,8026, , , , , , , , , ,
01-Aug-2000,8048, , , , , , , , , ,
01-Sep-2000,11029, , , , , , , , , ,
01-Oct-2000,9848, , , , , , , , , ,
01-Nov-2000,13493, , , , , , , , , ,
01-Dec-2000,13431, , , , , , , , , ,
01-Jan-2001,13828, , , , , , , , , ,
01-Feb-2001,11683, , , , , , , , , ,
01-Mar-2001,10564, , , , , , , , , ,
01-Apr-2001,10055, , , , , , , , , ,
01-May-2001,9786, , , , , , , , , ,
01-Jun-2001,9760, , , , , , , , , ,
01-Jul-2001,13003, , , , , , , , , ,
01-Aug-2001,13333, , , , , , , , , ,
01-Sep-2001,7607, , , , , , , , , ,
01-Oct-2001,9795, , , , , , , , , ,
01-Nov-2001,10177, , , , , , , , , ,
01-Dec-2001,13023, , , , , , , , , ,
01-Jan-2002,13090, , , , , , , , , ,
01-Feb-2002,10830, , , , , , , , , ,
01-Mar-2002,9790, , , , , , , , , ,
01-Apr-2002,10118, , , , , , , , , ,
01-May-2002,9598, , , , , , , , , ,
01-Jun-2002,12565, , , , , , , , , ,
01-Jul-2002,14593, , , , , , , , , ,
01-Aug-2002,14531, , , , , , , , , ,
01-Sep-2002,8124, , , , , , , , , ,
01-Oct-2002,8075, , , , , , , , , ,
01-Nov-2002,7999, , , , , , , , , ,
01-Dec-2002,9783, , , , , , , , , ,
01-Jan-2003,12754, , , , , , , , , ,
01-Feb-2003,12857, , , , , , , , , ,
01-Mar-2003,12791, , , , , , , , , ,
01-Apr-2003,10101, , , , , , , , , ,
01-May-2003,10601, , , , , , , , , ,
01-Jun-2003,14154, , , , , , , , , ,
01-Jul-2003,14642, , , , , , , , , ,
01-Aug-2003,14666, , , , , , , , , ,
01-Sep-2003,7950, , , , , , , , , ,
01-Oct-2003,7976, , , , , , , , , ,
01-Nov-2003,7982, , , , , , , , , ,
01-Dec-2003,9792, , , , , , , , , ,
01-Jan-2004,12827, , , , , , , , , ,
01-Feb-2004,12910, , , , , , , , , ,
01-Mar-2004,13096, , , , , , , , , ,
01-Apr-2004,10933, , , , , , , , , ,
01-May-2004,9683, , , , , , , , , ,
01-Jun-2004,13475, , , , , , , , , ,
01-Jul-2004,14645, , , , , , , , , ,
01-Aug-2004,14570, , , , , , , , , ,
01-Sep-2004,8127, , , , , , , , , ,
01-Oct-2004,8025, , , , , , , , , ,
01-Nov-2004,10478, , , , , , , , , ,
01-Dec-2004,9749, , , , , , , , , ,
01-Jan-2005,12639, , , , , , , , , ,
01-Feb-2005,12965, , , , , , , , , ,
01-Mar-2005,13056, , , , , , , , , ,
01-Apr-2005,8842, , , , , , , , , ,
01-May-2005,9711, , , , , , , , , ,
01-Jun-2005,13072, , , , , , , , , ,
01-Jul-2005,13823, , , , , , , , , ,
01-Aug-2005,14180, , , , , , , , , ,
01-Sep-2005,8349, , , , , , , , , ,
01-Oct-2005,8354, , , , , , , , , ,
01-Nov-2005,8636, , , , , , , , , ,
01-Dec-2005,13033, , , , , , , , , ,
01-Jan-2006,13012, , , , , , , , , ,
01-Feb-2006,14409, , , , , , , , , ,
01-Mar-2006,9790, , , , , , , , , ,
01-Apr-2006,10132, , , , , , , , , ,
01-May-2006,9783, , , , , , , , , ,
01-Jun-2006,13464, , , , , , , , , ,
01-Jul-2006,13477, , , , , , , , , ,
01-Aug-2006,13450, , , , , , , , , ,
01-Sep-2006,9011, , , , , , , , , ,
01-Oct-2006,9857, , , , , , , , , ,
01-Nov-2006,10126, , , , , , , , , ,
01-Dec-2006,13020, , , , , , , , , ,
01-Jan-2007,13016, , , , , , , , , ,
01-Feb-2007,10884, , , , , , , , , ,
01-Mar-2007,9790, , , , , , , , , ,
01-Apr-2007,10089, , , , , , , , , ,
01-May-2007,9780, , , , , , , , , ,
01-Jun-2007,13470, , , , , , , , , ,
01-Jul-2007,13077, , , , , , , , , ,
01-Aug-2007,13076, , , , , , , , , ,
01-Sep-2007,10147, , , , , , , , , ,
01-Oct-2007,9773, , , , , , , , , ,
01-Nov-2007,10137, , , , , , , , , ,
01-Dec-2007,13054, , , , , , , , , ,
01-Jan-2008,13022, , , , , , , , , ,
01-Feb-2008,10471, , , , , , , , , ,
01-Mar-2008,11990, , , , , , , , , ,
01-Apr-2008,11402, , , , , , , , , ,
01-May-2008,12852, , , , , , , , , ,
01-Jun-2008,13299, , , , , , , , , ,
01-Jul-2008,14074, , , , , , , , , ,
01-Aug-2008,14468, , , , , , , , , ,
01-Sep-2008,12157, , , , , , , , , ,
01-Oct-2008,12176, , , , , , , , , ,
01-Nov-2008,10133, , , , , , , , , ,
01-Dec-2008,13021, , , , , , , , , ,
01-Jan-2009,13049, , , , , , , , , ,
01-Feb-2009,10837, , , , , , , , , ,
01-Mar-2009,10180, , , , , , , , , ,
01-Apr-2009,10151, , , , , , , , , ,
01-May-2009,9469, , , , , , , , , ,
01-Jun-2009,11162, , , , , , , , , ,
01-Jul-2009,13059, , , , , , , , , ,
01-Aug-2009,13047, , , , , , , , , ,
01-Sep-2009,10050, , , , , , , , , ,
01-Oct-2009,10082, , , , , , , , , ,
01-Nov-2009,11626, , , , , , , , , ,
01-Dec-2009,14657, , , , , , , , , ,
01-Jan-2010,14645, , , , , , , , , ,
01-Feb-2010,11353, , , , , , , , , ,
01-Mar-2010,9789, , , , , , , , , ,
01-Apr-2010,10116, , , , , , , , , ,
01-May-2010,9780, , , , , , , , , ,
01-Jun-2010,10100, , , , , , , , , ,
01-Jul-2010,13051, , , , , , , , , ,
01-Aug-2010,13039, , , , , , , , , ,
01-Sep-2010,8070, , , , , , , , , ,
01-Oct-2010,8059, , , , , , , , , ,
01-Nov-2010,13610, , , , , , , , , ,
01-Dec-2010,13769, , , , , , , , , ,
01-Jan-2011,16219, , , , , , , , , ,
01-Feb-2011,17360, , , , , , , , , ,
01-Mar-2011,16805, , , , , , , , , ,
01-Apr-2011,15798, , , , , , , , , ,
01-May-2011,19048, , , , , , , , , ,
01-Jun-2011,23137, , , , , , , , , ,
01-Jul-2011,24125, , , , , , , , , ,
01-Aug-2011,24047, , , , , , , , , ,
01-Sep-2011,15495, , , , , , , , , ,
01-Oct-2011,15550, , , , , , , , , ,
01-Nov-2011,18473, , , , , , , , , ,
01-Dec-2011,19897, , , , , , , , , ,
01-Jan-2012,13855, , , , , , , , , ,
01-Feb-2012,11346, , , , , , , , , ,
01-Mar-2012,9759, , , , , , , , , ,
01-Apr-2012,10190, , , , , , , , , ,
01-May-2012,9774, , , , , , , , , ,
01-Jun-2012,11909, , , , , , , , , ,
01-Jul-2012,14406, , , , , , , , , ,
01-Aug-2012,13018, , , , , , , , , ,
01-Sep-2012,8081, , , , , , , , , ,
01-Oct-2012,8101, , , , , , , , , ,
01-Nov-2012,10961, , , , , , , , , ,
01-Dec-2012,13027, , , , , , , , , ,
01-Jan-2013,13025, , , , , , , , , ,
01-Feb-2013,10800, , , , , , , , , ,
01-Mar-2013,9778, , , , , , , , , ,
01-Apr-2013,9259, , , , , , , , , ,
01-May-2013,9783, , , , , , , , , ,
01-Jun-2013,13443, , , , , , , , , ,
01-Jul-2013,13784, , , , , , , , , ,
01-Aug-2013,13027, , , , , , , , , ,
01-Sep-2013,10092, , , , , , , , , ,
01-Oct-2013,7825, , , , , , , , , ,
01-Nov-2013,9294, , , , , , , , , ,
01-Dec-2013,9769, , , , , , , , , ,
01-Jan-2014,13016, , , , , , , , , ,
01-Feb-2014,10795, , , , , , , , , ,
01-Mar-2014,8189, , , , , , , , , ,
01-Apr-2014,8432, , , , , , , , , ,
01-May-2014,8023, , , , , , , , , ,
01-Jun-2014,10054, , , , , , , , , ,
01-Jul-2014,13012, , , , , , , , , ,
01-Aug-2014,13028, , , , , , , , , ,
01-Sep-2014,10154, , , , , , , , , ,
01-Oct-2014,9725, , , , , , , , , ,
01-Nov-2014,10836, , , , , , , , , ,
01-Dec-2014,14058, , , , , , , , , ,
01-Jan-2015,14021, , , , , , , , , ,
01-Feb-2015,10609, , , , , , , , , ,
01-Mar-2015,10560, , , , , , , , , ,
01-Apr-2015,10089, , , , , , , , , ,
01-May-2015,11364, , , , , , , , , ,
01-Jun-2015,13445, , , , , , , , , ,
01-Jul-2015,17048, , , , , , , , , ,
01-Aug-2015,13000, , , , , , , , , ,
01-Sep-2015,12001, , , , , , , , , ,
01-Oct-2015,9762, , , , , , , , , ,
01-Nov-2015,9696, , , , , , , , , ,
01-Dec-2015,13943, , , , , , , , , ,
01-Jan-2016,13944, , , , , , , , , ,
01-Feb-2016,12173, , , , , , , , , ,
01-Mar-2016,11286, , , , , , , , , ,
01-Apr-2016,11180, , , , , , , , , ,
01-May-2016,11389, , , , , , , , , ,
01-Jun-2016,13444, , , , , , , , , ,
01-Jul-2016,15455, , , , , , , , , ,
01-Aug-2016,14631, , , , , , , , , ,
01-Sep-2016,11746, , , , , , , , , ,

*,Min/Max values are based on 30-year period of water years 1980 through 2010. Water years begin on October 1st and end on September 30th.,
**,Inflow is computed based on reservoir release and change in reservoir storage (and reservoir evaporation and change in bank storage when these parameters are accounted for).,
***,Unregulated Inflow adjusts for the effects of operations at upstream reservoirs.  It is computed by adding the change in storage and the evaporation losses from upstream reservoirs to the observed inflow.,